Flag for U.S.A. Weather past 2 weeks in Pomona, California, U.S.A.

Now
69 °F

Passing clouds.


Feels Like: 69 °F
Forecast: 68 / 91 °F
Wind: No wind

Location: Chino Airport

Current Time: Jul 28, 2014 at 7:42:35 AM

Latest Report: Jul 28, 2014 at 6:53 AM


Visibility: 10 mi

Pressure: 30.05 "Hg

Humidity: 81%

Dew point: 63 °F

Location of PomonaLocation

Historic Weather in Pomona — Graph

°F

Pomona temperature yesterday

Maximum temperature yesterday: 95 °F (at 3:53 PM)
Minimum temperature yesterday: 67 °F (at 5:53 AM)
Average temperature yesterday: 80 °F

Past Weeks' High & Low Weather Summary

 TemperatureHumidityPressure
High102 °F (Jul 24, 1:53 PM)97% (Jul 18, 5:53 AM)30.06 "Hg (Jul 18, 5:53 AM)
Low57 °F (Jul 23, 4:53 AM)17% (Jul 24, 1:53 PM)29.72 "Hg (Jul 24, 5:53 PM)
Average75 °F64%29.95 "Hg
* Reported Jul 13 5:53 AM — Jul 28 5:53 AM, Pomona, Weather by CustomWeather, © 2014

Note: Actual official high and low records may vary slightly from our data, if they occured in-between our weather recording intervals... More about our weather records

Advertising

Pomona weather history for previous 24 hours

 ConditionsComfort  
Time TempWeatherWind HumidityBarometerVisibility
5:53 AM
Jul 28
69 °FPassing clouds.No wind79%30.03 "Hg8 mi
4:53 AM70 °FPassing clouds.5 mph73%30.03 "Hg8 mi
3:53 AM72 °FClear.7 mph57%30.03 "Hg9 mi
2:53 AM75 °FClear.8 mph39%30.01 "Hg9 mi
1:53 AM74 °FClear.6 mph57%30.01 "Hg8 mi
12:53 AM75 °FClear.8 mph52%30.01 "Hg8 mi
11:53 PM
Jul 27
76 °FClear.6 mph54%29.99 "Hg8 mi
10:53 PM79 °FClear.8 mph38%29.98 "Hg8 mi
9:53 PM80 °FPassing clouds.7 mph32%29.95 "Hg9 mi
8:53 PM82 °FSunny.8 mph40%29.92 "Hg9 mi
7:53 PM86 °FBroken clouds.10 mph31%29.90 "Hg10 mi
6:53 PM91 °FPartly sunny.10 mph33%29.90 "Hg10 mi
5:53 PM92 °FPartly sunny.12 mph31%29.91 "Hg10 mi
4:53 PM93 °FPartly sunny.9 mph29%29.90 "Hg10 mi
3:53 PM95 °FPartly sunny.9 mph30%29.92 "Hg10 mi
2:53 PM90 °FPartly sunny.16 mph38%29.95 "Hg10 mi
1:53 PM91 °FPartly sunny.15 mph39%29.97 "Hg10 mi
12:53 PM92 °FBroken clouds.9 mph32%29.98 "Hg10 mi
11:53 AM88 °FBroken clouds.7 mph39%29.99 "Hg10 mi
10:53 AM81 °FPartly sunny.No wind53%30.01 "Hg10 mi
9:53 AM78 °FPartly sunny.No wind58%30.01 "Hg10 mi
8:53 AM76 °FPartly sunny.No wind64%30.01 "Hg7 mi
7:53 AM72 °FPartly sunny.No wind71%30.01 "Hg10 mi
Weather by CustomWeather, © 2014

See weather overviewHow to use our weather pages